www.pogodaiklimat.ru

Погода и климат >> Архив погоды >> Китай >> город Тяньцзинь >> Тяньцзинь


АРХИВ ПОГОДЫ в Тяньцзине

Время (UTC), дата Ветер
(напр.,м/с)
 
Видим.   Явления Облачность Т
(С)
Тd
(С)
f
(%)
Тe
(С)
Тes
(С)
Комфортность P
(гПа)
Po
(гПа)
Тmin
(С)
Tmax
(С)
R
(мм)
R24
(мм)
S
(см)
18 11.02 С 2 4200 м дымка ?/? -4.1 -7.7 76 -8 -8 по сезону 1034.4 1033.7 +3.2
21 11.02 В 3 5000 м дымка н/о -2.0 -7.1 68 -7 -7 по сезону 1034.6 1033.9
00 12.02 В 5 13 км слаб. снег 10/10
[]
-2.1 -6.8 70 -8 -8 по сезону 1035.5 1034.8 0.0
03 12.02 В 6 10 км слаб. снег 10/10
[]
-3.6 -7.2 76 -11 -11 очень
холодно
1037.2 1036.5
06 12.02 В 6 18 км слаб. снег 10/10 600 м
[]
-3.9 -8.0 73 -11 -11 очень
холодно
1035.7 1035.0 -6.3 0.5
09 12.02 В 4 30 км слаб. снег 10/10 600 м
[]
-4.6 -9.4 69 -11 -11 очень
холодно
1036.1 1035.4
12 12.02 В 1 30 км {снег} 10/10
[]
-4.6 -9.4 69 -7 -7 прохладно 1037.9 1037.2 0.2
18 12.02 С 2 23 км ?/? -4.5 -9.1 70 -8 -8 по сезону 1038.8 1038.2 -1.7
21 12.02 С 1 27 км н/о -4.9 -9.3 71 -7 -7 по сезону 1038.8 1038.1
00 13.02 С 1 23 км 9/9
[]
-5.1 -9.2 73 -7 -7 по сезону 1040.1 1039.4
03 13.02 В 2 23 км 8/8
[]
-2.3 -11.3 50 -6 -4 прохладно 1040.6 1039.9
06 13.02 С 3 25 км 8/8
[]
-0.5 -12.8 39 -4 -3 холодно 1037.7 1037.0 -5.1
09 13.02 ЮВ 4 27 км 9/9
[]
-1.4 -13.6 39 -6 -6 холодно 1036.6 1035.9
12 13.02 ЮВ 3 21 км 8/8
[]
-4.2 -11.9 55 -9 -9 холодно 1038.4 1037.7
18 13.02 Ю 2 23 км ?/? -4.2 -9.2 68 -8 -8 прохладно 1038.0 1037.3 -0.1
21 13.02 Ю 2 30 км н/о -4.0 -9.0 68 -8 -8 по сезону 1037.0 1036.3
00 14.02 ЮВ 2 30 км 10/10
[]
-2.8 -9.7 59 -6 -6 по сезону 1036.8 1036.1
03 14.02 ЮВ 6 30 км в посл. час снег 9/9 600 м
[]
-0.9 -11.3 45 -7 -7 холодно 1035.0 1034.4
06 14.02 ЮВ 4 19 км слаб. снег 10/10
[]
-2.3 -7.2 69 -8 -8 очень
холодно
1032.3 1031.6 -5.9 0.0
09 14.02 ЮВ 3 н/о слаб. снег 10/10 600 м
[]
-3.2 -5.1 87 -8 -8 очень
холодно
1029.9 1029.2
12 14.02 ЮВ 1 25 км в посл. час снег 10/10
[]
-3.7 -5.7 86 -6 -6 прохладно 1030.3 1029.6 1
18 14.02 З 2 8000 м ?/? -5.3 -6.7 90 -10 -10 прохладно 1028.5 1027.8 -0.7 0.1
21 14.02 СЗ 2 4000 м дымка н/о -8.0 -9.3 90 -13 -13 холодно 1028.8 1028.1
00 15.02 СЗ 3 7000 м ясно -8.0 -10.2 84 -14 -13 очень
холодно
1030.4 1029.8 0.1
03 15.02 С 8 30 км 1/1
[]
-1.2 -15.8 32 -8 -7 холодно 1030.5 1029.9
06 15.02 С 9 30 км 1/1
[]
+0.7 -19.1 21 -6 -5 очень
холодно
1029.0 1028.4 -8.8
09 15.02 С 6 30 км ясно +0.2 -19.0 22 -5 -5 холодно 1029.4 1028.8
12 15.02 С 4 30 км ясно -1.9 -17.6 29 -7 -7 прохладно 1030.9 1030.3
18 15.02 С 5 30 км ?/? -5.0 -18.8 33 -11 -11 холодно 1033.1 1032.4 +1.6
21 15.02 С 4 30 км н/о -6.5 -19.8 34 -12 -12 холодно 1033.3 1032.6
00 16.02 С 5 30 км ясно -5.8 -21.0 29 -12 -12 холодно 1034.6 1033.9
03 16.02 С 7 30 км ясно -0.8 -22.8 17 -7 -5 холодно 1034.4 1033.8
06 16.02 С 6 30 км ясно +2.8 -24.8 11 -2 +1 холодно 1031.6 1031.0 -7.1
09 16.02 С 5 30 км ясно +1.9 -22.8 14 -2 -2 по сезону 1030.6 1030.0
12 16.02 С 4 30 км ясно -2.2 -21.6 21 -7 -7 прохладно 1031.0 1030.3
18 16.02 С 3 30 км ?/? -3.3 -19.2 28 -7 -7 по сезону 1032.7 1032.0 +3.1
21 16.02 СЗ 3 30 км н/о -5.4 -19.5 32 -10 -10 прохладно 1031.9 1031.2
00 17.02 С 3 30 км ясно -4.1 -18.7 31 -9 -8 прохладно 1031.7 1031.0
03 17.02 С 3 30 км 3/3
[]
+2.1 -19.8 18 -1 +4 по сезону 1031.6 1031.0
06 17.02 СЗ 3 30 км 1/1
[]
+5.9 -20.4 13 +4 +9 по сезону 1028.1 1027.5 -6.8
09 17.02 З 4 30 км 5/5
[]
+5.5 -19.9 14 +3 +3 по сезону 1026.7 1026.1
12 17.02 З 1 30 км 8/8
[]
+1.8 -17.7 22 +1 +1 по сезону 1026.7 1026.1
18 17.02 С 1 9000 м ?/? -0.6 -14.2 35 -2 -2 по сезону 1025.1 1024.5 +6.9
21 17.02 ЮВ 1 10 км н/о -3.0 -12.5 48 -5 -5 по сезону 1024.8 1024.2
00 18.02 Ю 1 9000 м 9/9
[]
-3.3 -10.8 56 -5 -5 по сезону 1024.9 1024.3
03 18.02 З 2 15 км 10/10
[]
+2.8 -11.9 33 +1 +1 по сезону 1025.2 1024.6
06 18.02 З 3 19 км 9/9
[]
+5.0 -12.0 28 +3 +3 по сезону 1022.3 1021.7 -4.3
09 18.02 ЮВ 2 22 км 10/10
[]
+5.2 -12.7 26 +4 +4 по сезону 1021.2 1020.6

 

Местоположение метеостанции Тяньцзинь (город Тяньцзинь, Китай): широта 39.10 долгота 117.16 высота над уровнем моря 5 м.

В архиве по умолчанию представлена погода в Тяньцзине за последнюю неделю. Архивные данные за месяц целиком и за предыдущие месяцы, начиная с января 2011 года, Вы можете получить, выбрав интересующий диапазон дат из раскрывающегося списка и нажав кнопку "Ввод!".


*Определитесь, кто Вы:
робот инопланетянин человек

Внимание! Время в таблицах - всемирное. Для получения местного времени необходимо прибавить поправку, которая равна 8 ч.

Смотрите также архив погоды в соседних городах и на ближайших метеорологических станциях:

Погода в Таншане (Хэбэй, Китай) (106 км)
Погода в Пекине (город Пекин, Китай) (119 км)
Погода в Баотоу (Внутренняя Монголия, Китай) (125 км)
Погода в Баодине (Хэбэй, Китай) (141 км)
Погода в Лаотине (Хэбэй, Китай) (154 км)
Погода в Хуэймине (Шаньдун, Китай) (181 км)
Погода в Хуайлае (Хэбэй, Китай) (203 км)
Погода в Линчэне (Шаньдун, Китай) (204 км)
Погода в Цинлуне (Хэбэй, Китай) (211 км)
Погода в Чэндэ (Хэбэй, Китай) (220 км)

Пояснения к столбцам:

Ветер - указаны скорость ветра в м/с - средняя за 10 мин, порывы в срок и между сроками (в фигурных скобках) и направление, откуда дует ветер: С - северный, СВ - северо-восточный, В - восточный, ЮВ - юго-восточный, Ю - южный, ЮЗ - юго-западный, З - западный, СЗ - северо-западный.
Видимость - горизонтальная дальность видимости в метрах или километрах. При видимости от 1 до 10 км при отсутствии осадков обычно наблюдается дымка, при ухудшении видимости до 1 км и менее - туман. В сухую погоду видимость может ухудшаться дымом, пылью или мглою.
Явления - указаны атмосферные явления, наблюдавшиеся в срок или в последний час перед сроком; фигурными скобками обозначены явления, наблюдавшиеся между сроками (за 1-3 часа до срока); квадратными скобками обозначены град или гололедные отложения с указанием их диаметра в мм.
Облачность - указаны через наклонную черту общая и нижняя облачность в баллах и высота нижней границы облаков в метрах; квадратными скобками обозначены формы облаков: Ci - перистые, Cs - перисто-слоистые, Cc - перисто-кучевые, Ac - высококучевые, As - высокослоистые, Sc - слоисто-кучевые, Ns - слоисто-дождевые, Cu - кучевые, Cb - кучево-дождевые. Подробнее классификацию облаков см. в Атласе облаков (PDF).
T - Температура воздуха - температура, измеренная на высоте 2 м над землей.
Td - Температура точки росы - температура, при понижении до которой содержащийся в воздухе водяной пар достигнет насыщения.
f - Относительная влажность воздуха - влажноcть воздуха, измеренная на высоте 2 м над землей.
Te - Эффективная температура - температура, которую ощущает одетый по сезону человек в тени. Характеристика душности погоды. При расчете учитывается влияние влажности воздуха и скорости ветра на теплоощущения человека.
Tes - Эффективная температура на солнце - температура, которую ощущает человек, с поправкой на солнечный нагрев. Характеристика знойности погоды. Зависит от высоты солнца над горизонтом, облачности и скорости ветра. Ночью, в пасмурную погоду, а также при ветре 12 м/с и более поправка равна нулю.
P - Атмосферное давление - приведенное к уровню моря атмосферное давление.
Po - Атмосферное давление - измеренное на уровне метеостанции атмосферное давление.
Tmin - Минимальная температура - минимум температуры воздуха на высоте 2 м над землей.
Tmax - Максимальная температура - максимум температуры воздуха на высоте 2 м над землей.
R - Количество осадков - Количество выпавших осадков за период времени, мм. При наведении курсора мыши на число - период времени, за который выпало указанное количество осадков.
R24 - Количество осадков - Количество выпавших осадков за 24 часа, мм.
S - Снежный покров - Высота снежного покрова, см. При наведении курсора мыши на число - состояние снежного покрова и степень покрытия местности в баллах.